N395T KBVY-N79

Flight info

Callsign N395T
Flight time N/A
Altitude 16000
Route GDM LVZ DIANO
Aircraft PC12/L-SDFGRWY/S

Departure

Time 2026-04-29 01:07
Airport Beverly Regional Airport (KBVY)

Arrival

Time N/A
Airport N79
Time Latitude Longitude Altitude Speed Heading
2026-04-29 00:41 42.58595 -70.92032 105 ft 0 kts 11°
2026-04-29 01:00 42.58602 -70.92017 105 ft 4 kts 93°
2026-04-29 01:00 42.58601 -70.91996 105 ft 0 kts 96°
2026-04-29 01:00 42.58600 -70.91986 105 ft 5 kts 97°
2026-04-29 01:01 42.58556 -70.91964 104 ft 10 kts 190°
2026-04-29 01:01 42.58473 -70.91984 101 ft 14 kts 189°
2026-04-29 01:01 42.58367 -70.92009 94 ft 16 kts 190°
2026-04-29 01:01 42.58254 -70.92036 86 ft 14 kts 190°
2026-04-29 01:02 42.58199 -70.92050 84 ft 0 kts 190°
2026-04-29 01:02 42.58198 -70.92080 84 ft 8 kts 275°
2026-04-29 01:02 42.58181 -70.92174 82 ft 13 kts 253°
2026-04-29 01:02 42.58138 -70.92297 74 ft 16 kts 242°
2026-04-29 01:03 42.58097 -70.92401 74 ft 11 kts 242°
2026-04-29 01:03 42.58065 -70.92483 74 ft 9 kts 234°
2026-04-29 01:03 42.58041 -70.92495 75 ft 2 kts 161°
2026-04-29 01:03 42.58038 -70.92493 75 ft 0 kts 165°
2026-04-29 01:05 42.58027 -70.92490 75 ft 7 kts 165°
2026-04-29 01:05 42.57984 -70.92465 68 ft 5 kts 126°
2026-04-29 01:05 42.57981 -70.92453 70 ft 1 kts 86°
2026-04-29 01:06 42.57999 -70.92359 76 ft 29 kts 75°
2026-04-29 01:06 42.58101 -70.91871 87 ft 77 kts 74°
2026-04-29 01:06 42.58264 -70.91067 241 ft 95 kts 74°
2026-04-29 01:06 42.58446 -70.90166 513 ft 106 kts 71°
2026-04-29 01:07 42.58890 -70.89254 771 ft 130 kts 40°
2026-04-29 01:07 42.59747 -70.88687 1185 ft 148 kts 17°
2026-04-29 01:07 42.60841 -70.88527 1470 ft 167 kts
2026-04-29 01:07 42.62040 -70.88787 1720 ft 181 kts 351°
2026-04-29 01:08 42.63235 -70.89267 2073 ft 183 kts 341°
2026-04-29 01:08 42.64433 -70.90112 1983 ft 202 kts 334°
2026-04-29 01:08 42.65676 -70.91070 2029 ft 205 kts 334°
2026-04-29 01:08 42.66849 -70.92098 2230 ft 198 kts 323°
2026-04-29 01:09 42.67853 -70.93329 2438 ft 192 kts 320°
2026-04-29 01:09 42.68835 -70.94579 2496 ft 196 kts 320°
2026-04-29 01:09 42.69836 -70.95849 2494 ft 201 kts 320°
2026-04-29 01:09 42.70871 -70.97157 2511 ft 205 kts 320°
2026-04-29 01:10 42.71869 -70.98541 2515 ft 207 kts 310°
2026-04-29 01:10 42.72715 -71.00133 2717 ft 199 kts 307°
2026-04-29 01:10 42.73419 -71.01647 3172 ft 180 kts 296°
2026-04-29 01:10 42.73742 -71.03208 3620 ft 164 kts 281°
2026-04-29 01:11 42.73935 -71.04664 4067 ft 149 kts 281°
2026-04-29 01:11 42.74108 -71.05987 4513 ft 134 kts 281°
2026-04-29 01:11 42.74274 -71.07262 4848 ft 151 kts 281°
2026-04-29 01:11 42.74355 -71.08800 5048 ft 176 kts 254°
2026-04-29 01:12 42.73668 -71.10231 5347 ft 188 kts 229°
2026-04-29 01:12 42.72820 -71.11635 5630 ft 198 kts 232°
2026-04-29 01:12 42.71969 -71.13167 5958 ft 203 kts 234°
2026-04-29 01:12 42.71132 -71.14722 6343 ft 205 kts 234°
2026-04-29 01:13 42.70280 -71.16289 6722 ft 207 kts 234°
2026-04-29 01:13 42.69413 -71.17878 7059 ft 213 kts 234°
2026-04-29 01:13 42.68520 -71.19513 7394 ft 217 kts 234°
2026-04-29 01:13 42.67642 -71.21120 7755 ft 212 kts 234°
2026-04-29 01:14 42.66767 -71.22718 8128 ft 209 kts 234°
2026-04-29 01:14 42.65893 -71.24314 8515 ft 207 kts 234°
2026-04-29 01:14 42.65052 -71.25849 8890 ft 205 kts 234°
2026-04-29 01:14 42.64207 -71.27391 9269 ft 204 kts 234°
2026-04-29 01:15 42.63356 -71.28943 9666 ft 203 kts 233°
2026-04-29 01:15 42.62517 -71.30472 10033 ft 202 kts 233°
2026-04-29 01:15 42.61680 -71.31998 10392 ft 201 kts 233°
2026-04-29 01:15 42.60850 -71.33509 10743 ft 200 kts 233°
2026-04-29 01:16 42.60017 -71.35026 11111 ft 199 kts 233°
2026-04-29 01:16 42.59189 -71.36532 11482 ft 199 kts 233°
2026-04-29 01:16 42.58362 -71.38035 11831 ft 200 kts 233°
2026-04-29 01:16 42.57527 -71.39555 12147 ft 202 kts 234°
2026-04-29 01:17 42.56687 -71.41080 12422 ft 206 kts 234°
2026-04-29 01:17 42.55813 -71.42668 12716 ft 208 kts 234°
2026-04-29 01:17 42.54951 -71.44232 12997 ft 210 kts 234°
2026-04-29 01:17 42.54074 -71.45823 13273 ft 212 kts 233°
2026-04-29 01:18 42.53186 -71.47434 13537 ft 214 kts 233°
2026-04-29 01:18 42.51395 -71.50677 14053 ft 216 kts 234°
2026-04-29 01:18 42.50510 -71.52279 14288 ft 217 kts 234°
2026-04-29 01:19 42.49605 -71.53917 14534 ft 218 kts 234°
2026-04-29 01:19 42.48695 -71.55562 14772 ft 218 kts 234°
2026-04-29 01:19 42.47785 -71.57206 15011 ft 218 kts 234°
2026-04-29 01:19 42.46875 -71.58848 15251 ft 218 kts 234°
2026-04-29 01:20 42.45962 -71.60497 15502 ft 220 kts 234°
2026-04-29 01:20 42.45064 -71.62116 15736 ft 220 kts 234°
2026-04-29 01:20 42.44119 -71.63820 15980 ft 221 kts 234°
2026-04-29 01:20 42.43186 -71.65503 16003 ft 231 kts 234°
2026-04-29 01:21 42.42207 -71.67267 16003 ft 238 kts 234°
2026-04-29 01:21 42.41203 -71.69075 16003 ft 243 kts 234°
2026-04-29 01:21 42.40179 -71.70918 16004 ft 246 kts 234°
2026-04-29 01:21 42.39141 -71.72783 16005 ft 249 kts 234°
2026-04-29 01:22 42.38097 -71.74658 15989 ft 250 kts 233°
2026-04-29 01:22 42.37048 -71.76540 15992 ft 251 kts 233°
2026-04-29 01:22 42.35995 -71.78430 15990 ft 252 kts 233°
2026-04-29 01:22 42.34947 -71.80323 15990 ft 251 kts 235°
2026-04-29 01:23 42.34241 -71.82466 15984 ft 250 kts 253°
2026-04-29 01:23 42.33798 -71.84711 15986 ft 251 kts 255°
2026-04-29 01:23 42.33352 -71.87027 15988 ft 251 kts 255°
2026-04-29 01:23 42.32905 -71.89283 15989 ft 252 kts 254°
2026-04-29 01:24 42.32447 -71.91571 15989 ft 252 kts 254°
2026-04-29 01:24 42.31991 -71.93860 15990 ft 252 kts 254°
2026-04-29 01:24 42.31535 -71.96150 15990 ft 252 kts 254°
2026-04-29 01:24 42.31078 -71.98441 15990 ft 252 kts 254°
2026-04-29 01:25 42.30621 -72.00731 15987 ft 253 kts 255°
2026-04-29 01:25 42.30311 -72.02278 15986 ft 252 kts 255°
2026-04-29 01:25 42.29853 -72.04568 15989 ft 253 kts 255°
2026-04-29 01:25 42.29400 -72.06828 15986 ft 252 kts 255°
2026-04-29 01:26 42.28941 -72.09117 15983 ft 252 kts 255°
2026-04-29 01:26 42.28482 -72.11402 15981 ft 252 kts 255°
2026-04-29 01:26 42.28021 -72.13693 15978 ft 252 kts 255°
2026-04-29 01:26 42.27562 -72.15973 15977 ft 252 kts 255°
2026-04-29 01:27 42.27109 -72.18222 15971 ft 252 kts 255°
2026-04-29 01:27 42.26642 -72.20534 15971 ft 252 kts 255°
2026-04-29 01:27 42.26180 -72.22821 15941 ft 252 kts 255°
2026-04-29 01:27 42.25718 -72.25105 15937 ft 251 kts 255°
2026-04-29 01:28 42.25258 -72.27375 15934 ft 251 kts 255°
2026-04-29 01:28 42.24798 -72.29647 15933 ft 250 kts 255°
2026-04-29 01:28 42.24338 -72.31911 15929 ft 250 kts 255°
2026-04-29 01:28 42.23878 -72.34177 15927 ft 250 kts 255°
2026-04-29 01:29 42.23424 -72.36410 15924 ft 249 kts 255°
2026-04-29 01:29 42.22966 -72.38657 15926 ft 248 kts 255°
2026-04-29 01:29 42.22509 -72.40901 15923 ft 247 kts 255°
2026-04-29 01:29 42.22054 -72.43131 15927 ft 247 kts 255°
2026-04-29 01:30 42.21598 -72.45360 15924 ft 246 kts 255°
2026-04-29 01:30 42.21142 -72.47591 15922 ft 246 kts 255°
2026-04-29 01:30 42.20686 -72.49816 15927 ft 247 kts 255°
2026-04-29 01:30 42.20228 -72.52050 15924 ft 247 kts 255°
2026-04-29 01:31 42.19774 -72.54264 15925 ft 247 kts 255°
2026-04-29 01:31 42.19311 -72.56518 15922 ft 247 kts 255°
2026-04-29 01:31 42.18851 -72.58753 15925 ft 248 kts 255°
2026-04-29 01:31 42.18390 -72.60995 15924 ft 248 kts 256°
2026-04-29 01:32 42.17927 -72.63239 15981 ft 247 kts 256°
2026-04-29 01:32 42.17467 -72.65468 16006 ft 247 kts 256°
2026-04-29 01:32 42.17012 -72.67673 15998 ft 248 kts 256°
2026-04-29 01:32 42.16548 -72.69916 16005 ft 248 kts 256°
2026-04-29 01:33 42.16040 -72.72133 16007 ft 247 kts 249°
2026-04-29 01:33 42.15366 -72.74263 16004 ft 247 kts 249°
2026-04-29 01:33 42.14701 -72.76408 16008 ft 248 kts 249°
2026-04-29 01:33 42.14040 -72.78552 16003 ft 249 kts 249°
2026-04-29 01:34 42.13373 -72.80702 16005 ft 249 kts 249°
2026-04-29 01:34 42.12701 -72.82860 16005 ft 250 kts 249°
2026-04-29 01:34 42.12029 -72.85018 16000 ft 250 kts 250°
2026-04-29 01:34 42.11356 -72.87180 15992 ft 250 kts 250°
2026-04-29 01:35 42.10682 -72.89341 16000 ft 250 kts 250°
2026-04-29 01:35 42.10006 -72.91507 15996 ft 251 kts 250°
2026-04-29 01:35 42.09340 -72.93640 15986 ft 251 kts 250°
2026-04-29 01:35 42.08661 -72.95811 15987 ft 251 kts 250°
2026-04-29 01:36 42.07982 -72.97981 15985 ft 251 kts 250°
2026-04-29 01:36 42.07303 -73.00151 15986 ft 251 kts 250°
2026-04-29 01:36 42.06624 -73.02316 15982 ft 251 kts 250°
2026-04-29 01:36 42.05945 -73.04482 15985 ft 251 kts 250°
2026-04-29 01:37 42.05265 -73.06649 15972 ft 251 kts 250°
2026-04-29 01:37 42.04583 -73.08818 15976 ft 252 kts 250°
2026-04-29 01:37 42.03898 -73.10997 15968 ft 252 kts 250°
2026-04-29 01:37 42.03213 -73.13172 15969 ft 253 kts 250°
2026-04-29 01:38 42.02527 -73.15353 15971 ft 253 kts 250°
2026-04-29 01:38 42.01841 -73.17526 15975 ft 253 kts 250°
2026-04-29 01:38 42.01154 -73.19706 15972 ft 253 kts 250°
2026-04-29 01:38 42.00466 -73.21886 15972 ft 253 kts 250°
2026-04-29 01:39 41.99784 -73.24042 15974 ft 254 kts 250°
2026-04-29 01:39 41.99094 -73.26224 15978 ft 254 kts 250°
2026-04-29 01:39 41.98402 -73.28411 15976 ft 254 kts 250°
2026-04-29 01:39 41.97712 -73.30589 15972 ft 253 kts 250°
2026-04-29 01:40 41.97022 -73.32766 15971 ft 253 kts 250°
2026-04-29 01:40 41.96331 -73.34944 15969 ft 253 kts 250°
2026-04-29 01:40 41.95640 -73.37120 15969 ft 253 kts 250°
2026-04-29 01:40 41.94947 -73.39300 15970 ft 253 kts 250°
2026-04-29 01:41 41.94257 -73.41470 15967 ft 253 kts 250°
2026-04-29 01:41 41.93566 -73.43640 15966 ft 252 kts 250°
2026-04-29 01:41 41.92875 -73.45810 15965 ft 252 kts 250°
2026-04-29 01:41 41.92187 -73.47967 15957 ft 252 kts 250°
2026-04-29 01:42 41.91508 -73.50098 15965 ft 251 kts 250°
2026-04-29 01:42 41.90809 -73.52285 15952 ft 251 kts 250°
2026-04-29 01:42 41.90122 -73.54436 15963 ft 250 kts 250°
2026-04-29 01:42 41.89444 -73.56555 15961 ft 250 kts 250°
2026-04-29 01:43 41.88760 -73.58694 15963 ft 250 kts 250°
2026-04-29 01:43 41.88073 -73.60837 15947 ft 249 kts 250°
2026-04-29 01:43 41.87387 -73.62976 15959 ft 249 kts 251°
2026-04-29 01:43 41.86703 -73.65109 15955 ft 249 kts 251°
2026-04-29 01:44 41.86014 -73.67254 15956 ft 250 kts 251°
2026-04-29 01:44 41.85324 -73.69402 15959 ft 251 kts 251°
2026-04-29 01:44 41.84631 -73.71558 15953 ft 252 kts 251°
2026-04-29 01:44 41.83937 -73.73713 15963 ft 252 kts 251°
2026-04-29 01:45 41.83242 -73.75869 15963 ft 252 kts 251°
2026-04-29 01:45 41.82547 -73.78026 15950 ft 252 kts 251°
2026-04-29 01:45 41.81852 -73.80178 15961 ft 252 kts 251°
2026-04-29 01:45 41.81164 -73.82310 15961 ft 252 kts 251°
2026-04-29 01:46 41.80468 -73.84464 15964 ft 252 kts 251°
2026-04-29 01:46 41.79769 -73.86624 15968 ft 252 kts 251°
2026-04-29 01:46 41.79072 -73.88777 15960 ft 252 kts 251°
2026-04-29 01:46 41.78375 -73.90930 15968 ft 252 kts 251°
2026-04-29 01:47 41.77676 -73.93087 15954 ft 252 kts 251°
2026-04-29 01:47 41.76980 -73.95232 15967 ft 252 kts 251°
2026-04-29 01:47 41.76294 -73.97346 15958 ft 251 kts 251°
2026-04-29 01:47 41.75592 -73.99505 15964 ft 251 kts 251°
2026-04-29 01:48 41.74885 -74.01679 15963 ft 251 kts 252°
2026-04-29 01:48 41.74194 -74.03802 15960 ft 252 kts 251°
2026-04-29 01:48 41.73494 -74.05951 15969 ft 251 kts 251°
2026-04-29 01:48 41.72795 -74.08097 15961 ft 251 kts 252°
2026-04-29 01:49 41.72096 -74.10238 15970 ft 252 kts 252°
2026-04-29 01:49 41.71395 -74.12387 15967 ft 252 kts 252°
2026-04-29 01:49 41.70693 -74.14535 15980 ft 252 kts 252°
2026-04-29 01:49 41.69990 -74.16683 15973 ft 252 kts 252°
2026-04-29 01:50 41.69288 -74.18829 15982 ft 252 kts 252°
2026-04-29 01:50 41.68585 -74.20975 15982 ft 252 kts 252°
2026-04-29 01:50 41.67882 -74.23121 15981 ft 251 kts 252°
2026-04-29 01:50 41.67180 -74.25260 15981 ft 251 kts 252°
2026-04-29 01:51 41.66487 -74.27371 15979 ft 251 kts 252°
2026-04-29 01:51 41.65785 -74.29509 15980 ft 251 kts 252°
2026-04-29 01:51 41.65070 -74.31683 15981 ft 251 kts 252°
2026-04-29 01:51 41.64376 -74.33791 15981 ft 251 kts 252°
2026-04-29 01:52 41.63664 -74.35951 15980 ft 251 kts 252°
2026-04-29 01:52 41.62971 -74.38056 15981 ft 251 kts 252°
2026-04-29 01:52 41.62264 -74.40199 15992 ft 250 kts 252°
2026-04-29 01:52 41.61560 -74.42330 15996 ft 250 kts 252°
2026-04-29 01:53 41.60857 -74.44458 15997 ft 250 kts 252°
2026-04-29 01:53 41.60153 -74.46588 16002 ft 251 kts 252°
2026-04-29 01:53 41.59449 -74.48716 15998 ft 250 kts 252°
2026-04-29 01:53 41.58747 -74.50837 16004 ft 250 kts 252°
2026-04-29 01:54 41.58044 -74.52959 16005 ft 250 kts 252°
2026-04-29 01:54 41.57338 -74.55089 16001 ft 251 kts 251°
2026-04-29 01:54 41.56632 -74.57216 16002 ft 251 kts 251°
2026-04-29 01:54 41.55924 -74.59344 16000 ft 251 kts 251°
2026-04-29 01:55 41.55226 -74.61446 16004 ft 251 kts 251°
2026-04-29 01:55 41.54522 -74.63563 16002 ft 251 kts 251°
2026-04-29 01:55 41.53808 -74.65707 16002 ft 251 kts 251°
2026-04-29 01:55 41.53099 -74.67834 16004 ft 251 kts 251°
2026-04-29 01:56 41.52391 -74.69959 16007 ft 251 kts 251°
2026-04-29 01:56 41.51683 -74.72082 16009 ft 251 kts 251°
2026-04-29 01:56 41.50975 -74.74201 16008 ft 251 kts 251°
2026-04-29 01:56 41.50261 -74.76338 16005 ft 251 kts 251°
2026-04-29 01:57 41.49548 -74.78469 16006 ft 251 kts 251°
2026-04-29 01:57 41.48837 -74.80595 16007 ft 251 kts 251°
2026-04-29 01:57 41.48122 -74.82729 16005 ft 251 kts 251°
2026-04-29 01:57 41.47410 -74.84853 16004 ft 251 kts 251°
2026-04-29 01:58 41.46695 -74.86983 16002 ft 251 kts 251°
2026-04-29 01:58 41.45993 -74.89072 16006 ft 251 kts 251°
2026-04-29 01:58 41.45274 -74.91213 16005 ft 251 kts 251°
2026-04-29 01:58 41.44565 -74.93323 16005 ft 252 kts 251°
2026-04-29 01:59 41.43843 -74.95468 16007 ft 251 kts 251°
2026-04-29 01:59 41.43127 -74.97591 16008 ft 251 kts 251°
2026-04-29 01:59 41.42412 -74.99715 16003 ft 251 kts 251°
2026-04-29 01:59 41.41697 -75.01835 16002 ft 251 kts 251°
2026-04-29 02:00 41.40981 -75.03955 16005 ft 251 kts 251°
2026-04-29 02:00 41.40266 -75.06073 16002 ft 251 kts 251°
2026-04-29 02:00 41.39551 -75.08187 16005 ft 251 kts 251°
2026-04-29 02:00 41.38839 -75.10291 16001 ft 247 kts 251°
2026-04-29 02:01 41.38146 -75.12336 16000 ft 245 kts 251°
2026-04-29 02:01 41.37438 -75.14428 15998 ft 243 kts 251°
2026-04-29 02:01 41.36752 -75.16452 15998 ft 242 kts 251°
2026-04-29 02:01 41.36060 -75.18491 15998 ft 242 kts 251°
2026-04-29 02:02 41.35368 -75.20528 15993 ft 241 kts 251°
2026-04-29 02:02 41.34677 -75.22562 15992 ft 241 kts 251°
2026-04-29 02:02 41.33987 -75.24591 15992 ft 241 kts 251°
2026-04-29 02:02 41.33296 -75.26621 15990 ft 240 kts 251°
2026-04-29 02:03 41.32608 -75.28642 15988 ft 240 kts 251°
2026-04-29 02:03 41.31918 -75.30665 16002 ft 240 kts 251°
2026-04-29 02:03 41.31228 -75.32690 16000 ft 240 kts 251°
2026-04-29 02:03 41.30537 -75.34714 15991 ft 240 kts 251°
2026-04-29 02:04 41.29849 -75.36728 15990 ft 239 kts 251°
2026-04-29 02:04 41.29162 -75.38738 15989 ft 238 kts 251°
2026-04-29 02:04 41.28476 -75.40745 15986 ft 238 kts 251°
2026-04-29 02:04 41.27790 -75.42748 15987 ft 238 kts 251°
2026-04-29 02:05 41.27104 -75.44750 15985 ft 238 kts 251°
2026-04-29 02:05 41.26427 -75.46727 15981 ft 237 kts 251°
2026-04-29 02:05 41.25741 -75.48727 15983 ft 237 kts 251°
2026-04-29 02:05 41.25056 -75.50722 15983 ft 237 kts 251°
2026-04-29 02:06 41.24373 -75.52708 15983 ft 237 kts 251°
2026-04-29 02:06 41.23687 -75.54705 15982 ft 237 kts 251°
2026-04-29 02:06 41.23004 -75.56692 15976 ft 237 kts 251°
2026-04-29 02:06 41.22308 -75.58719 15726 ft 245 kts 251°
2026-04-29 02:07 41.21589 -75.60808 15480 ft 251 kts 251°
2026-04-29 02:07 41.20854 -75.62938 15177 ft 256 kts 250°
2026-04-29 02:07 41.20108 -75.65100 14861 ft 260 kts 250°
2026-04-29 02:07 41.19360 -75.67264 14552 ft 261 kts 250°
2026-04-29 02:08 41.18601 -75.69460 14247 ft 262 kts 250°
2026-04-29 02:08 41.17842 -75.71654 13947 ft 261 kts 250°
2026-04-29 02:08 41.17087 -75.73837 13607 ft 260 kts 250°
2026-04-29 02:08 41.16329 -75.76025 13270 ft 259 kts 250°
2026-04-29 02:09 41.15577 -75.78195 12935 ft 259 kts 250°
2026-04-29 02:09 41.14824 -75.80366 12556 ft 260 kts 250°
2026-04-29 02:09 41.14066 -75.82551 12175 ft 261 kts 250°
2026-04-29 02:09 41.13306 -75.84736 11777 ft 261 kts 249°
2026-04-29 02:10 41.12545 -75.86925 11391 ft 261 kts 249°
2026-04-29 02:10 41.12045 -75.88362 11216 ft 259 kts 249°
2026-04-29 02:10 41.11292 -75.90520 10975 ft 256 kts 249°
2026-04-29 02:10 41.10548 -75.92655 10732 ft 255 kts 249°
2026-04-29 02:11 41.09806 -75.94786 10496 ft 254 kts 249°
2026-04-29 02:11 41.09064 -75.96913 10256 ft 254 kts 249°
2026-04-29 02:11 41.08321 -75.99042 9921 ft 256 kts 248°
2026-04-29 02:11 41.07575 -76.01178 9526 ft 253 kts 248°
2026-04-29 02:12 41.06837 -76.03286 9135 ft 251 kts 248°
2026-04-29 02:12 41.06105 -76.05376 8751 ft 249 kts 248°
2026-04-29 02:12 41.05377 -76.07456 8373 ft 248 kts 248°
2026-04-29 02:12 41.04655 -76.09517 8002 ft 246 kts 248°
2026-04-29 02:13 41.03942 -76.11547 7622 ft 240 kts 248°
2026-04-29 02:13 41.03248 -76.13524 7255 ft 232 kts 248°
2026-04-29 02:13 41.02579 -76.15430 6889 ft 225 kts 248°
2026-04-29 02:13 41.01927 -76.17286 6525 ft 219 kts 248°
2026-04-29 02:14 41.01293 -76.19090 6148 ft 214 kts 248°
2026-04-29 02:14 41.00675 -76.20846 5773 ft 212 kts 247°
2026-04-29 02:14 40.99936 -76.22533 5386 ft 209 kts 230°
2026-04-29 02:14 40.98812 -76.23702 5069 ft 207 kts 214°
2026-04-29 02:15 40.97624 -76.24653 4871 ft 192 kts 213°
2026-04-29 02:15 40.96514 -76.25529 4679 ft 185 kts 213°
2026-04-29 02:15 40.95364 -76.26448 4508 ft 200 kts 213°
2026-04-29 02:15 40.94147 -76.27425 4335 ft 207 kts 213°
2026-04-29 02:16 40.92901 -76.28423 4157 ft 212 kts 212°
2026-04-29 02:16 40.91635 -76.29435 4003 ft 211 kts 212°
2026-04-29 02:16 40.90411 -76.30414 4005 ft 199 kts 213°
2026-04-29 02:16 40.89439 -76.31616 3997 ft 187 kts 238°
2026-04-29 02:17 40.88974 -76.33159 3993 ft 172 kts 252°
2026-04-29 02:17 40.88642 -76.34575 3996 ft 159 kts 251°
2026-04-29 02:17 40.88303 -76.35996 3848 ft 159 kts 251°
2026-04-29 02:17 40.87986 -76.37339 3655 ft 148 kts 251°
2026-04-29 02:18 40.87684 -76.38603 3473 ft 140 kts 250°
2026-04-29 02:18 40.87390 -76.39824 3280 ft 142 kts 249°
2026-04-29 02:18 40.87100 -76.41039 3089 ft 134 kts 248°
2026-04-29 02:18 40.86811 -76.42238 2909 ft 142 kts 247°
2026-04-29 02:19 40.86490 -76.43560 2697 ft 154 kts 248°
2026-04-29 02:19 40.86193 -76.44826 2481 ft 140 kts 248°
2026-04-29 02:19 40.85924 -76.45965 2288 ft 119 kts 248°
2026-04-29 02:19 40.85685 -76.46958 2136 ft 104 kts 248°
2026-04-29 02:20 40.85461 -76.47876 1986 ft 106 kts 248°
2026-04-29 02:20 40.85243 -76.48786 1838 ft 98 kts 248°
2026-04-29 02:20 40.85035 -76.49646 1700 ft 100 kts 248°
2026-04-29 02:20 40.84833 -76.50494 1576 ft 94 kts 248°
2026-04-29 02:21 40.84648 -76.51281 1462 ft 91 kts 249°
2026-04-29 02:21 40.84456 -76.52100 1366 ft 90 kts 248°
2026-04-29 02:21 40.84263 -76.52900 1219 ft 92 kts 252°
2026-04-29 02:21 40.84069 -76.53692 1095 ft 89 kts 251°
2026-04-29 02:22 40.83885 -76.54453 958 ft 84 kts 252°
2026-04-29 02:22 40.83717 -76.55151 879 ft 68 kts 252°
2026-04-29 02:22 40.83638 -76.55355 873 ft 12 kts 161°
2026-04-29 02:22 40.83609 -76.55312 873 ft 9 kts 75°
2026-04-29 02:23 40.83630 -76.55225 875 ft 10 kts 73°
2026-04-29 02:23 40.83649 -76.55142 879 ft 9 kts 73°
2026-04-29 02:23 40.83665 -76.55075 882 ft 7 kts 72°
2026-04-29 02:23 40.83679 -76.55015 886 ft 7 kts 73°
2026-04-29 02:24 40.83693 -76.54951 888 ft 9 kts 72°
2026-04-29 02:24 40.83714 -76.54866 890 ft 10 kts 72°
2026-04-29 02:24 40.83737 -76.54778 893 ft 9 kts 71°
2026-04-29 02:25 40.83737 -76.54650 896 ft 5 kts 115°
2026-04-29 02:25 40.83722 -76.54666 895 ft 0 kts 257°